www.pogodaiklimat.ru

Погода и климат >> Архив погоды >> Австрия >> Feistritz ob Bleibu


ПОГОДА в Feistritz ob Bleibu

  • Прогноз погоды в Feistritz ob Bleibu
  • Монитор погоды в Feistritz ob Bleibu
  • Климат города

АРХИВ ПОГОДЫ в Feistritz ob Bleibu

Время (UTC), дата Ветер
(напр.,м/с)
 
Видим.   Явления Облачность Т
(С)
Тd
(С)
f
(%)
Тe
(С)
Тes
(С)
Комфортность P
(гПа)
Po
(гПа)
Тmin
(С)
Tmax
(С)
R
(мм)
R24
(мм)
S
(см)
20 10.10 ЮВ 1 н/о н/о +9.5 +7.1 85 +9 +9 1021.7 958.8
19 10.10 Ю 1 н/о н/о +9.3 +7.2 87 +9 +9 1021.3 958.4
21 10.10 Ю 1 н/о н/о +8.0 +6.5 90 +7 +7 1022.6 959.3
22 10.10 ЮВ 1 н/о н/о +7.9 +6.5 91 +7 +7 1023.0 959.7
23 10.10 ЮВ 1 н/о н/о +7.4 +6.4 93 +6 +6 1023.2 959.7
00 11.10 ЮВ 1 н/о н/о +7.3 +6.4 94 +6 +6 1023.7 960.2
02 11.10 штиль 0 н/о н/о +5.7 +5.0 95 +5 +5 1023.9 960.0
01 11.10 штиль 0 н/о н/о +6.5 +5.6 94 +5 +5 1023.4 959.7
03 11.10 ЮЗ 1 н/о н/о +5.4 +4.8 96 +4 +4 1024.1 960.1
04 11.10 Ю 1 н/о н/о +5.1 +4.5 96 +4 +4 1024.6 960.5
05 11.10 З 1 40 км 1/0
[Ci fib]
+4.5 +4.0 97 +3 +3 1024.7 960.5
06 11.10 штиль 0 2000 м дымка 1/1 50 м
[St Ci fib]
+4.9 +4.6 98 +4 +4 1025.3 961.1 +4.2 +10.2
08 11.10 С 1 н/о н/о +8.6 +8.0 96 +8 +8 1025.2 961.9
07 11.10 СЗ 1 н/о н/о +6.4 +5.6 95 +5 +5 1025.2 961.4
09 11.10 СЗ 1 н/о н/о +10.6 +8.3 86 +10 +10 1024.2 961.4
10 11.10 СЗ 2 н/о н/о +12.4 +8.5 77 +12 +12 1023.8 961.4
11 11.10 С 1 н/о н/о +15.3 +10.4 73 +16 +16 1022.2 960.5
12 11.10 З 1 50 км 8/1 1500 м
[Cu hum Cs]
+15.9 +9.6 66 +17 +22 1021.2 959.7
14 11.10 ЮЗ 1 н/о н/о +17.3 +9.7 61 +18 +18 1019.9 958.8 0.0
13 11.10 штиль 0 н/о н/о +17.4 +9.6 60 +17 +17 1020.1 959.0
15 11.10 ЮЗ 1 н/о н/о +17.4 +9.6 60 +18 +18 1019.7 958.6 0.0
16 11.10 Ю 1 н/о н/о +14.7 +10.1 74 +15 +15 1020.4 958.7
17 11.10 штиль 0 н/о н/о +11.4 +8.8 84 +11 +11 1021.2 958.8
18 11.10 Ю 1 40 км 4/0
[Ci fib]
+10.6 +8.4 86 +10 +10 1021.8 959.1 +5.0 +17.9
20 11.10 штиль 0 н/о н/о +8.3 +6.9 91 +7 +7 1023.1 959.8
19 11.10 штиль 0 н/о н/о +9.2 +7.4 88 +8 +8 1022.5 959.5
21 11.10 Ю 1 н/о н/о +8.8 +7.3 90 +8 +8 1023.0 959.9
22 11.10 штиль 0 н/о н/о +7.3 +6.3 93 +6 +6 1023.5 960.0
23 11.10 штиль 0 н/о н/о +7.1 +6.3 95 +6 +6 1023.7 960.1
00 12.10 штиль 0 н/о н/о +6.5 +5.7 95 +5 +5 1023.8 960.1
02 12.10 штиль 0 н/о н/о +5.7 +4.9 95 +5 +5 1024.0 960.1
01 12.10 штиль 0 н/о н/о +6.2 +5.6 96 +5 +5 1023.9 960.1
03 12.10 штиль 0 н/о н/о +5.8 +5.5 98 +5 +5 1024.1 960.2
04 12.10 штиль 0 н/о н/о +5.5 +5.3 99 +4 +4 1024.3 960.3
05 12.10 штиль 0 200 м туман ?/? +4.3 +4.3 100 +3 +3 1025.0 960.7
06 12.10 З 1 100 м туман ?/? +5.2 +5.2 100 +4 +4 1025.6 961.5 +4.2 +10.9
08 12.10 штиль 0 н/о н/о +8.0 +7.8 99 +7 +7 1025.8 962.3
07 12.10 СЗ 1 н/о н/о +5.6 +5.4 99 +4 +4 1026.1 962.0
09 12.10 СЗ 1 н/о н/о +8.9 +7.5 91 +8 +8 1025.8 962.5
10 12.10 С 1 н/о н/о +12.1 +9.2 82 +12 +12 1025.0 962.5
11 12.10 штиль 0 н/о н/о +14.6 +9.6 72 +14 +14 1023.8 961.9
12 12.10 З 1 50 км {туман} ясно +16.5 +10.1 66 +17 +25 1022.8 961.3
14 12.10 штиль 0 н/о н/о +19.1 +10.6 58 +20 +20 1021.8 960.9
13 12.10 З 1 н/о н/о +18.2 +10.8 62 +20 +20 1022.0 960.9
15 12.10 Ю 1 н/о н/о +16.9 +9.1 60 +18 +18 1022.1 960.7
16 12.10 Ю 1 н/о н/о +14.4 +7.1 62 +15 +15 1022.8 960.9
17 12.10 штиль 0 н/о н/о +11.5 +7.1 74 +11 +11 1023.9 961.3
18 12.10 штиль 0 40 км 1/0
[Ci fib]
+9.8 +7.3 84 +9 +9 1025.1 962.0 +5.1 +19.4
20 12.10 штиль 0 н/о н/о +8.5 +6.7 88 +8 +8 1026.1 962.7
19 12.10 штиль 0 н/о н/о +9.4 +7.0 85 +9 +9 1025.5 962.3
21 12.10 ЮЗ 1 н/о н/о +8.6 +7.1 90 +8 +8 1026.6 963.2
22 12.10 штиль 0 н/о н/о +8.2 +6.9 92 +7 +7 1027.0 963.5
23 12.10 штиль 0 н/о н/о +7.8 +6.4 91 +7 +7 1027.3 963.7
00 13.10 штиль 0 н/о н/о +7.1 +6.0 93 +6 +6 1028.1 964.3
02 13.10 штиль 0 н/о н/о +6.6 +5.8 95 +6 +6 1028.4 964.4
01 13.10 штиль 0 н/о н/о +7.2 +6.2 93 +6 +6 1028.0 964.2
03 13.10 штиль 0 н/о н/о +6.3 +5.6 95 +5 +5 1028.3 964.3
04 13.10 Ю 1 н/о н/о +6.0 +5.2 95 +5 +5 1028.7 964.6
05 13.10 ЮВ 1 10 км 4/3 300 м
[St Ac lent]
+5.4 +5.0 97 +4 +4 1029.0 964.7
06 13.10 штиль 0 1000 м дымка 4/1 50 м
[St Ac lent Ci fib]
+5.4 +5.4 100 +4 +4 1029.5 965.2 +4.7 +10.4
08 13.10 СЗ 1 н/о н/о +10.5 +8.9 90 +10 +10 1028.7 965.6
07 13.10 штиль 0 н/о н/о +6.8 +6.6 99 +6 +6 1029.5 965.5
09 13.10 С 1 н/о н/о +12.6 +9.3 80 +13 +13 1028.2 965.6
10 13.10 С 1 н/о н/о +14.1 +9.3 73 +15 +15 1027.3 965.1
11 13.10 СЗ 1 н/о н/о +16.4 +9.3 63 +17 +17 1026.2 964.5
12 13.10 штиль 0 50 км {туман} 8/0
[Cs]
+18.1 +9.2 56 +18 +25 1025.0 963.7
14 13.10 штиль 0 н/о н/о +20.0 +9.2 50 +21 +21 комфорт 1023.9 963.1 0.0
13 13.10 З 1 н/о н/о +18.9 +8.7 52 +21 +21 комфорт 1024.3 963.2
15 13.10 Ю 1 н/о н/о +19.1 +9.5 54 +21 +21 комфорт 1023.9 962.9 0.0
16 13.10 Ю 1 н/о н/о +15.2 +9.5 69 +16 +16 1025.0 963.1
17 13.10 Ю 1 н/о н/о +12.9 +6.8 66 +13 +13 1026.0 963.5
18 13.10 штиль 0 50 км 3/0
[Ci fib]
+10.0 +6.7 80 +9 +9 1026.9 963.8 +5.4 +20.3
20 13.10 штиль 0 н/о н/о +8.9 +6.8 87 +8 +8 1028.1 964.7
19 13.10 ЮЗ 1 н/о н/о +9.3 +6.6 83 +9 +9 1027.6 964.3
21 13.10 ЮЗ 1 н/о н/о +8.9 +7.3 90 +8 +8 1028.2 964.8
22 13.10 ЮЗ 1 н/о н/о +7.9 +6.6 91 +7 +7 1028.8 965.1
23 13.10 штиль 0 н/о н/о +7.0 +5.7 91 +6 +6 1029.2 965.3
00 14.10 Ю 1 н/о н/о +7.2 +6.1 93 +6 +6 1029.6 965.7
02 14.10 ЮЗ 1 н/о н/о +6.3 +5.5 95 +5 +5 1029.9 965.8
01 14.10 ЮЗ 1 н/о н/о +6.4 +5.4 93 +5 +5 1029.8 965.7
03 14.10 штиль 0 н/о н/о +5.5 +4.7 95 +4 +4 1030.3 965.9
04 14.10 ЮЗ 1 н/о н/о +5.4 +5.0 97 +4 +4 1030.6 966.2
05 14.10 штиль 0 500 м туман ?/? +5.7 +5.7 100 +4 +4 1030.7 966.4
06 14.10 штиль 0 200 м туман ?/? +5.6 +5.6 100 +4 +4 1031.5 967.1 +4.2 +10.3
08 14.10 СЗ 1 н/о н/о +7.4 +7.2 99 +6 +6 1031.9 967.9
07 14.10 СЗ 1 н/о н/о +6.4 +6.2 99 +5 +5 1031.9 967.7
09 14.10 С 1 н/о н/о +9.3 +9.0 98 +9 +9 1031.3 967.8
10 14.10 СЗ 1 н/о н/о +12.4 +8.9 79 +12 +12 1030.4 967.6
11 14.10 СЗ 1 н/о н/о +14.8 +9.1 69 +15 +15 1028.9 966.7
12 14.10 ЮВ 1 50 км {туман} 1/0
[Ci fib]
+16.6 +9.3 62 +18 +25 1027.8 966.0
14 14.10 В 1 н/о н/о +18.9 +9.9 56 +21 +21 комфорт 1026.5 965.3
13 14.10 В 1 н/о н/о +18.3 +9.5 56 +20 +20 1027.1 965.7
15 14.10 Ю 2 н/о н/о +17.4 +10.1 62 +18 +18 1026.7 965.2
16 14.10 Ю 1 н/о н/о +15.3 +10.0 71 +16 +16 1027.3 965.3
17 14.10 штиль 0 н/о н/о +11.6 +8.4 81 +11 +11 1028.5 965.6
18 14.10 штиль 0 45 км ясно +10.8 +8.6 86 +10 +10 1029.1 966.0 +5.7 +19.3
20 14.10 штиль 0 н/о н/о +9.4 +7.6 89 +9 +9 1030.4 966.9
19 14.10 штиль 0 н/о н/о +9.8 +8.1 89 +9 +9 1029.8 966.5
21 14.10 штиль 0 н/о н/о +8.9 +7.9 93 +8 +8 1030.7 967.1
22 14.10 штиль 0 н/о н/о +8.7 +7.6 93 +8 +8 1030.9 967.3
23 14.10 штиль 0 н/о н/о +8.0 +7.2 95 +7 +7 1031.3 967.5
00 15.10 штиль 0 н/о н/о +7.8 +7.0 95 +7 +7 1031.4 967.5
02 15.10 штиль 0 н/о н/о +7.1 +6.5 96 +6 +6 1031.3 967.3
01 15.10 штиль 0 н/о н/о +7.6 +6.9 95 +7 +7 1031.2 967.3
03 15.10 штиль 0 н/о н/о +6.2 +6.0 99 +5 +5 1031.9 967.6
04 15.10 штиль 0 н/о н/о +6.7 +6.6 99 +6 +6 1031.9 967.7
05 15.10 штиль 0 1000 м дымка 3/3 <50 м
[St]
+5.5 +5.5 100 +4 +4 1032.3 967.8
06 15.10 З 1 200 м туман ?/? +5.7 +5.7 100 +4 +4 1032.6 968.2 +5.3 +10.7
08 15.10 С 1 н/о н/о +8.5 +8.2 98 +8 +8 1032.4 968.6
07 15.10 штиль 0 н/о н/о +6.3 +6.1 99 +5 +5 1032.7 968.4
09 15.10 С 1 н/о н/о +12.3 +9.7 84 +12 +12 1031.3 968.4
10 15.10 СЗ 2 н/о н/о +13.8 +9.5 75 +13 +13 1030.5 968.0
11 15.10 СЗ 2 н/о н/о +15.8 +9.8 67 +16 +16 1029.4 967.4
12 15.10 штиль 0 50 км {туман} ясно +17.8 +9.9 60 +18 +26 1028.1 966.6
14 15.10 штиль 0 н/о н/о +20.3 +10.4 53 +22 +22 комфорт 1026.3 965.4
13 15.10 С 1 н/о н/о +19.5 +10.4 56 +22 +22 комфорт 1027.0 965.9
15 15.10 Ю 1 н/о н/о +18.3 +10.4 60 +20 +20 1026.4 965.1
16 15.10 штиль 0 н/о н/о +14.6 +9.9 73 +14 +14 1027.2 965.1
17 15.10 штиль 0 н/о н/о +12.4 +9.2 81 +12 +12 1028.0 965.4
18 15.10 штиль 0 50 км ясно +11.3 +8.9 85 +11 +11 1028.8 965.9 +5.7 +20.6
20 15.10 штиль 0 н/о н/о +9.8 +8.4 91 +9 +9 1029.9 966.6
19 15.10 штиль 0 н/о н/о +10.4 +8.6 89 +10 +10 1029.5 966.3
21 15.10 штиль 0 н/о н/о +9.6 +8.3 92 +9 +9 1030.2 966.8
22 15.10 штиль 0 н/о н/о +8.7 +7.7 93 +8 +8 1030.6 967.0
23 15.10 штиль 0 н/о н/о +8.3 +7.4 94 +7 +7 1030.6 966.9
00 16.10 штиль 0 н/о н/о +8.0 +7.3 95 +7 +7 1030.9 967.1
02 16.10 З 1 н/о н/о +7.2 +6.9 98 +6 +6 1030.7 966.7
01 16.10 штиль 0 н/о н/о +8.0 +7.4 96 +7 +7 1030.7 966.9
03 16.10 штиль 0 н/о н/о +7.2 +7.0 99 +6 +6 1030.7 966.7
04 16.10 Ю 1 н/о н/о +6.9 +6.7 99 +6 +6 1030.7 966.7
05 16.10 штиль 0 1000 м туман на расстоянии 1/1 <50 м
[St]
+5.7 +5.7 100 +4 +4 1031.0 966.7
06 16.10 штиль 0 500 м туман ?/? +5.7 +5.7 100 +4 +4 1031.3 966.9 +5.3 +11.4
08 16.10 С 1 н/о н/о +11.3 +9.1 86 +11 +11 1030.7 967.7
07 16.10 штиль 0 н/о н/о +8.1 +6.9 92 +7 +7 1031.2 967.4
09 16.10 С 1 н/о н/о +12.8 +9.9 83 +13 +13 1030.4 967.7
10 16.10 С 1 н/о н/о +14.8 +9.8 72 +15 +15 1029.3 967.1
11 16.10 З 2 н/о н/о +17.0 +11.2 69 +17 +17 1028.4 966.7
12 16.10 С 1 50 км {туман} ясно +18.7 +10.8 60 +20 +27 1027.2 965.9
14 16.10 штиль 0 н/о н/о +20.4 +11.3 56 +22 +22 комфорт 1025.7 964.9
13 16.10 Ю 1 н/о н/о +20.3 +10.4 53 +23 +23 комфорт 1026.2 965.3
15 16.10 Ю 1 н/о н/о +18.2 +10.6 61 +20 +20 1026.0 964.7
16 16.10 Ю 1 н/о н/о +15.0 +9.7 71 +16 +16 1026.5 964.5
17 16.10 штиль 0 н/о н/о +12.2 +9.1 81 +12 +12 1027.5 964.8
18 16.10 штиль 0 50 км ясно +11.2 +8.6 84 +11 +11 1028.0 965.1 +5.5 +20.9
20 16.10 ЮЗ 1 н/о н/о +10.0 +8.4 90 +9 +9 1028.6 965.4
19 16.10 ЮЗ 1 н/о н/о +10.4 +8.2 86 +10 +10 1028.3 965.2
21 16.10 штиль 0 н/о н/о +9.4 +8.0 91 +9 +9 1029.1 965.7
22 16.10 штиль 0 н/о н/о +8.8 +7.6 92 +8 +8 1029.4 965.9
23 16.10 штиль 0 н/о н/о +8.4 +7.2 92 +7 +7 1029.5 965.9
00 17.10 штиль 0 н/о н/о +8.0 +6.8 92 +7 +7 1029.6 965.9
02 17.10 штиль 0 н/о н/о +6.9 +6.0 94 +6 +6 1029.5 965.5
01 17.10 штиль 0 н/о н/о +7.2 +6.2 93 +6 +6 1029.7 965.8
03 17.10 штиль 0 н/о н/о +6.5 +5.8 95 +5 +5 1029.5 965.4
04 17.10 штиль 0 н/о н/о +6.0 +5.7 98 +5 +5 1029.6 965.4
05 17.10 штиль 0 4000 м дымка 3/3 50 м
[St]
+4.8 +4.8 100 +4 +4 1029.9 965.4
06 17.10 С 1 500 м туман ?/? +4.3 +4.3 100 +3 +3 1030.3 965.7 +4.3 +11.4
08 17.10 С 1 н/о н/о +9.0 +7.5 90 +8 +8 1029.4 965.9
07 17.10 штиль 0 н/о н/о +6.0 +5.5 97 +5 +5 1030.1 965.9
09 17.10 С 1 н/о н/о +12.5 +9.2 80 +13 +13 1028.2 965.6
10 17.10 С 1 н/о н/о +14.0 +9.0 72 +14 +14 1027.6 965.3
11 17.10 С 1 н/о н/о +16.2 +10.1 67 +17 +17 1026.0 964.3
12 17.10 З 1 50 км {туман} 4/0
[Ci fib]
+17.6 +9.7 60 +19 +25 1024.7 963.3
14 17.10 штиль 0 н/о н/о +19.4 +9.8 54 +20 +20 1022.7 961.8
13 17.10 ЮЗ 1 н/о н/о +18.7 +9.7 56 +20 +20 1023.5 962.4
15 17.10 Ю 2 н/о н/о +17.3 +10.1 63 +18 +18 1022.4 961.1
16 17.10 штиль 0 н/о н/о +14.1 +9.6 74 +14 +14 1022.7 960.7
17 17.10 штиль 0 н/о н/о +11.9 +8.8 81 +11 +11 1023.2 960.7

 

Местоположение метеостанции Feistritz ob Bleibu (Австрия): широта 46.57 долгота 14.77 высота над уровнем моря 527 м.

В архиве по умолчанию представлена погода в Feistritz ob Bleibu за последнюю неделю. Архивные данные за месяц целиком и за предыдущие месяцы, начиная с января 2011 года, Вы можете получить, выбрав интересующий диапазон дат из раскрывающегося списка и нажав кнопку "Ввод!".

Внимание! Время в таблицах - всемирное. Для получения местного времени необходимо прибавить поправку, которая в Feistritz ob Bleibu равна 1 ч.

Смотрите также архив погоды в соседних городах и на ближайших метеорологических станциях:

Погода в Eisenkappel (Австрия) (16 км)
Погода в St. Andrae I.L. (Австрия) (23 км)
Погода в Slovenj Gradec (Словения) (29 км)
Погода в Klagenfurt Flughafen (Австрия) (35 км)
Погода в Klagenfurt Flughafen (Австрия) (35 км)
Погода в Preitenegg (Австрия) (42 км)
Погода в Deutschlandsberg (Австрия) (45 км)
Погода в Ljubljana (Словения) (45 км)
Погода в Poertschach (Австрия) (46 км)
Погода в Lesce (Словения) (50 км)

Пояснения к столбцам:

Ветер - указаны скорость ветра в м/с - средняя за 10 мин, порывы в срок и между сроками (в фигурных скобках) и направление, откуда дует ветер: С - северный, СВ - северо-восточный, В - восточный, ЮВ - юго-восточный, Ю - южный, ЮЗ - юго-западный, З - западный, СЗ - северо-западный.
Видимость - горизонтальная дальность видимости в метрах или километрах. При видимости от 1 до 10 км при отсутствии осадков обычно наблюдается дымка, при ухудшении видимости до 1 км и менее - туман. В сухую погоду видимость может ухудшаться дымом, пылью или мглою.
Явления - указаны атмосферные явления, наблюдавшиеся в срок или в последний час перед сроком; фигурными скобками обозначены явления, наблюдавшиеся между сроками (за 1-3 часа до срока); квадратными скобками обозначены град или гололедные отложения с указанием их диаметра в мм.
Облачность - указаны через наклонную черту общая и нижняя облачность в баллах и высота нижней границы облаков в метрах; квадратными скобками обозначены формы облаков: Ci - перистые, Cs - перисто-слоистые, Cc - перисто-кучевые, Ac - высококучевые, As - высокослоистые, Sc - слоисто-кучевые, Ns - слоисто-дождевые, Cu - кучевые, Cb - кучево-дождевые. Подробнее классификацию облаков см. в Атласе облаков (PDF).
T - Температура воздуха - температура, измеренная на высоте 2 м над землей.
Td - Температура точки росы - температура, при понижении до которой содержащийся в воздухе водяной пар достигнет насыщения.
f - Относительная влажность воздуха - влажноcть воздуха, измеренная на высоте 2 м над землей.
Te - Эффективная температура - температура, которую ощущает одетый по сезону человек в тени. Характеристика душности погоды. При расчете учитывается влияние влажности воздуха и скорости ветра на теплоощущения человека.
Tes - Эффективная температура на солнце - температура, которую ощущает человек, с поправкой на солнечный нагрев. Характеристика знойности погоды. Зависит от высоты солнца над горизонтом, облачности и скорости ветра. Ночью, в пасмурную погоду, а также при ветре 12 м/с и более поправка равна нулю.
P - Атмосферное давление - приведенное к уровню моря атмосферное давление.
Po - Атмосферное давление - измеренное на уровне метеостанции атмосферное давление.
Tmin - Минимальная температура - минимум температуры воздуха на высоте 2 м над землей.
Tmax - Максимальная температура - максимум температуры воздуха на высоте 2 м над землей.
R - Количество осадков - Количество выпавших осадков за период времени, мм. При наведении курсора мыши на число - период времени, за который выпало указанное количество осадков.
R24 - Количество осадков - Количество выпавших осадков за 24 часа, мм.
S - Снежный покров - Высота снежного покрова, см. При наведении курсора мыши на число - состояние снежного покрова и степень покрытия местности в баллах.